QPF
0.00 0.00 0.01 0.00 0.00 0.01 0.01 0.01 0.01 0.00 0.00 0.00 0.00 0.00 0.00 0.00 0.00 0.00 0.00 0.00 0.00 0.00 0.00 0.01 0.01 0.01 0.01 0.00 0.00 0.00 0.00 0.00 0.00 0.00 0.00 0.00 0.00 0.00 0.00 0.00 0.00 0.01 0.01
0.00 0.00 0.01 0.00 0.00 0.01 0.01 0.01 0.01 0.00 0.00 0.00 0.00 0.00 0.00 0.00 0.00 0.00 0.00 0.00 0.00 0.00 0.00 0.00 0.00 0.00 0.00 0.00 0.00 0.00 0.00 0.00 0.00 0.00 0.00 0.00 0.00 0.00 0.00 0.00 0.00 0.01 0.01
0.00 0.00 0.01 0.00 0.01 0.01 0.01 0.01 0.00 0.00 0.00 0.00 0.00 0.00 0.00 0.00 0.00 0.00 0.00 0.00 0.00 0.00 0.00 0.00 0.00 0.00 0.00 0.00 0.00 0.00 0.00 0.00 0.00 0.00 0.00 0.00 0.00 0.00 0.00 0.00 0.00 0.01 0.01
0.00 0.00 0.00 0.01 0.01 0.01 0.01 0.01 0.00 0.00 0.00 0.00 0.00 0.00 0.00 0.01 0.00 0.00 0.00 0.00 0.00 0.00 0.00 0.00 0.00 0.00 0.00 0.00 0.00 0.00 0.00 0.00 0.00 0.00 0.00 0.00 0.00 0.00 0.00 0.00 0.00 0.01 0.02
0.00 0.00 0.01 0.01 0.01 0.01 0.00 0.00 0.00 0.00 0.00 0.00 0.00 0.00 0.01 0.01 0.01 0.01 0.00 0.00 0.00 0.00 0.00 0.00 0.00 0.00 0.00 0.00 0.00 0.00 0.00 0.00 0.00 0.00 0.00 0.00 0.00 0.01 0.01 0.01 0.01 0.01 0.01
0.00 0.00 0.01 0.01 0.01 0.00 0.00 0.00 0.00 0.00 0.00 0.00 0.00 0.01 0.01 0.01 0.01 0.00 0.00 0.00 0.00 0.00 0.00 0.00 0.00 0.00 0.00 0.00 0.00 0.00 0.00 0.00 0.00 0.00 0.00 0.00 0.01 0.01 0.01 0.01 0.01 0.01 0.01
0.00 0.01 0.01 0.01 0.00 0.00 0.00 0.00 0.00 0.00 0.00 0.00 0.00 0.01 0.01 0.01 0.01 0.00 0.00 0.00 0.00 0.00 0.00 0.00 0.00 0.00 0.00 0.00 0.00 0.00 0.00 0.00 0.00 0.00 0.00 0.00 0.01 0.01 0.01 0.01 0.01 0.01 0.00
0.00 0.01 0.02 0.01 0.01 0.01 0.00 0.00 0.00 0.00 0.00 0.00 0.00 0.01 0.01 0.01 0.00 0.00 0.00 0.00 0.00 0.00 0.00 0.00 0.00 0.00 0.00 0.00 0.00 0.00 0.00 0.00 0.00 0.00 0.00 0.00 0.00 0.01 0.01 0.00 0.01 0.01 0.00
0.01 0.01 0.02 0.02 0.01 0.01 0.01 0.00 0.00 0.00 0.00 0.00 0.00 0.00 0.00 0.00 0.00 0.00 0.00 0.00 0.00 0.00 0.00 0.00 0.00 0.00 0.00 0.00 0.00 0.00 0.00 0.00 0.00 0.00 0.00 0.00 0.01 0.01 0.01 0.01 0.01 0.00 0.00
0.01 0.01 0.02 0.02 0.01 0.01 0.01 0.01 0.00 0.00 0.00 0.00 0.00 0.00 0.00 0.00 0.00 0.00 0.00 0.00 0.00 0.00 0.00 0.00 0.00 0.00 0.00 0.00 0.00 0.00 0.00 0.00 0.00 0.00 0.00 0.00 0.01 0.01 0.01 0.01 0.01 0.00 0.00
0.02 0.02 0.02 0.02 0.01 0.01 0.01 0.01 0.00 0.00 0.00 0.00 0.00 0.00 0.00 0.00 0.00 0.00 0.00 0.00 0.00 0.00 0.00 0.00 0.00 0.00 0.00 0.00 0.00 0.00 0.00 0.00 0.00 0.00 0.00 0.00 0.01 0.01 0.01 0.01 0.00 0.00 0.00
0.02 0.01 0.02 0.01 0.01 0.01 0.01 0.01 0.01 0.00 0.00 0.00 0.00 0.00 0.00 0.00 0.00 0.00 0.00 0.00 0.00 0.00 0.00 0.00 0.00 0.00 0.00 0.00 0.00 0.00 0.00 0.00 0.00 0.00 0.00 0.00 0.01 0.01 0.01 0.01 0.00 0.00 0.00
0.01 0.01 0.01 0.01 0.01 0.01 0.01 0.01 0.01 0.00 0.00 0.00 0.00 0.00 0.00 0.00 0.00 0.00 0.00 0.00 0.00 0.00 0.00 0.00 0.00 0.00 0.00 0.00 0.00 0.00 0.00 0.00 0.00 0.00 0.00 0.00 0.00 0.01 0.01 0.01 0.00 0.00 0.00
0.01 0.01 0.01 0.01 0.01 0.01 0.01 0.00 0.00 0.00 0.00 0.00 0.00 0.00 0.00 0.00 0.00 0.00 0.00 0.00 0.00 0.00 0.00 0.00 0.00 0.00 0.00 0.00 0.00 0.00 0.00 0.00 0.00 0.00 0.00 0.00 0.00 0.01 0.01 0.01 0.01 0.00 0.00
0.01 0.01 0.01 0.01 0.01 0.01 0.01 0.00 0.00 0.00 0.00 0.00 0.00 0.00 0.00 0.00 0.00 0.00 0.00 0.00 0.00 0.00 0.00 0.00 0.00 0.00 0.00 0.00 0.00 0.00 0.00 0.00 0.00 0.00 0.00 0.00 0.00 0.00 0.01 0.01 0.01 0.01 0.00
0.02 0.01 0.01 0.01 0.00 0.00 0.00 0.00 0.00 0.00 0.00 0.00 0.00 0.00 0.00 0.00 0.00 0.00 0.00 0.00 0.00 0.00 0.00 0.00 0.00 0.00 0.00 0.00 0.00 0.00 0.00 0.00 0.00 0.00 0.00 0.00 0.00 0.00 0.01 0.01 0.01 0.01 0.01
0.04 0.01 0.00 0.00 0.00 0.00 0.00 0.00 0.00 0.00 0.00 0.00 0.00 0.00 0.00 0.00 0.00 0.00 0.00 0.00 0.00 0.00 0.00 0.00 0.00 0.00 0.00 0.00 0.00 0.00 0.00 0.00 0.00 0.00 0.00 0.00 0.00 0.00 0.00 0.01 0.01 0.01 0.01
0.04 0.03 0.01 0.00 0.00 0.00 0.00 0.00 0.00 0.00 0.00 0.00 0.00 0.00 0.00 0.00 0.00 0.00 0.00 0.00 0.00 0.00 0.00 0.00 0.00 0.00 0.00 0.00 0.00 0.00 0.00 0.00 0.00 0.00 0.00 0.00 0.00 0.00 0.00 0.00 0.01 0.02 0.02
0.06 0.05 0.02 0.01 0.01 0.00 0.00 0.00 0.00 0.00 0.00 0.00 0.00 0.00 0.00 0.00 0.00 0.00 0.00 0.00 0.00 0.00 0.00 0.00 0.00 0.00 0.00 0.00 0.01 0.01 0.01 0.00 0.00 0.00 0.00 0.00 0.00 0.01 0.01 0.00 0.00 0.01 0.01
0.05 0.05 0.03 0.02 0.02 0.01 0.01 0.01 0.00 0.00 0.00 0.00 0.00 0.00 0.00 0.00 0.00 0.00 0.00 0.01 0.00 0.00 0.00 0.00 0.00 0.00 0.00 0.01 0.01 0.00 0.00 0.00 0.00 0.00 0.01 0.01 0.01 0.01 0.01 0.01 0.00 0.00 0.00
0.03 0.03 0.03 0.02 0.02 0.01 0.01 0.01 0.00 0.00 0.00 0.00 0.00 0.00 0.00 0.01 0.01 0.01 0.00 0.00 0.01 0.00 0.01 0.01 0.01 0.01 0.01 0.00 0.01 0.00 0.00 0.00 0.00 0.00 0.00 0.00 0.00 0.01 0.01 0.01 0.01 0.00 0.00
0.02 0.02 0.02 0.02 0.02 0.01 0.01 0.01 0.00 0.00 0.00 0.00 0.00 0.00 0.00 0.01 0.01 0.01 0.01 0.01 0.01 0.01 0.01 0.01 0.01 0.01 0.01 0.01 0.01 0.01 0.01 0.00 0.00 0.00 0.00 0.00 0.00 0.00 0.00 0.00 0.00 0.00 0.00
0.01 0.01 0.01 0.02 0.01 0.01 0.01 0.01 0.01 0.00 0.00 0.00 0.00 0.00 0.00 0.00 0.00 0.00 0.00 0.01 0.01 0.01 0.01 0.01 0.01 0.01 0.01 0.01 0.01 0.02 0.02 0.01 0.00 0.00 0.00 0.00 0.00 0.00 0.00 0.00 0.00 0.00 0.01
0.00 0.00 0.00 0.01 0.01 0.01 0.00 0.01 0.00 0.00 0.00 0.00 0.00 0.00 0.00 0.00 0.00 0.00 0.00 0.00 0.00 0.00 0.01 0.01 0.01 0.01 0.01 0.01 0.01 0.01 0.01 0.01 0.02 0.01 0.00 0.00 0.00 0.00 0.00 0.00 0.00 0.00 0.01
0.00 0.00 0.00 0.00 0.00 0.00 0.00 0.00 0.00 0.00 0.00 0.00 0.00 0.00 0.00 0.00 0.00 0.00 0.00 0.00 0.00 0.00 0.00 0.00 0.00 0.00 0.01 0.01 0.01 0.01 0.01 0.01 0.01 0.01 0.01 0.00 0.00 0.00 0.00 0.00 0.00 0.00 0.00
0.00 0.00 0.00 0.00 0.00 0.00 0.00 0.00 0.00 0.00 0.00 0.00 0.00 0.00 0.00 0.00 0.00 0.00 0.00 0.00 0.00 0.00 0.00 0.00 0.00 0.01 0.01 0.01 0.01 0.01 0.01 0.01 0.01 0.01 0.01 0.01 0.00 0.00 0.00 0.00 0.00 0.00 0.00
MSLP
1015.94 1016.10 1016.38 1016.75 1017.19 1017.62 1017.98 1018.22 1018.35 1018.37 1018.33 1018.29 1018.30 1018.38 1018.54 1018.74 1018.95 1019.11 1019.19 1019.19 1019.12 1019.02 1018.93 1018.90 1018.95 1019.06 1019.23 1019.41 1019.57 1019.67 1019.72 1019.70 1019.65 1019.57 1019.50 1019.43 1019.38 1019.34 1019.30 1019.24 1019.17 1019.09 1019.00
1015.73 1015.94 1016.29 1016.75 1017.26 1017.76 1018.18 1018.46 1018.60 1018.62 1018.56 1018.50 1018.50 1018.58 1018.75 1018.98 1019.22 1019.43 1019.57 1019.62 1019.59 1019.53 1019.47 1019.46 1019.50 1019.60 1019.73 1019.87 1019.98 1020.04 1020.04 1019.99 1019.91 1019.82 1019.75 1019.70 1019.66 1019.63 1019.58 1019.51 1019.42 1019.31 1019.20
1015.57 1015.84 1016.25 1016.77 1017.34 1017.90 1018.36 1018.69 1018.85 1018.89 1018.84 1018.78 1018.77 1018.84 1019.01 1019.24 1019.49 1019.72 1019.88 1019.96 1019.97 1019.94 1019.92 1019.92 1019.97 1020.06 1020.18 1020.28 1020.34 1020.35 1020.30 1020.21 1020.11 1020.02 1019.96 1019.92 1019.90 1019.88 1019.85 1019.78 1019.68 1019.56 1019.43
1015.53 1015.83 1016.27 1016.83 1017.45 1018.04 1018.54 1018.90 1019.10 1019.16 1019.13 1019.08 1019.07 1019.14 1019.30 1019.52 1019.76 1019.98 1020.14 1020.22 1020.26 1020.26 1020.26 1020.30 1020.37 1020.46 1020.56 1020.63 1020.65 1020.61 1020.52 1020.40 1020.27 1020.18 1020.12 1020.10 1020.11 1020.12 1020.10 1020.05 1019.96 1019.83 1019.70
1015.61 1015.92 1016.37 1016.95 1017.58 1018.19 1018.71 1019.09 1019.32 1019.41 1019.41 1019.38 1019.39 1019.46 1019.61 1019.80 1020.02 1020.21 1020.36 1020.44 1020.49 1020.51 1020.55 1020.61 1020.70 1020.81 1020.90 1020.96 1020.94 1020.86 1020.73 1020.57 1020.42 1020.32 1020.27 1020.27 1020.30 1020.34 1020.35 1020.32 1020.24 1020.14 1020.01
1015.80 1016.11 1016.55 1017.12 1017.74 1018.34 1018.86 1019.25 1019.50 1019.61 1019.65 1019.66 1019.69 1019.77 1019.91 1020.10 1020.29 1020.45 1020.58 1020.65 1020.70 1020.74 1020.80 1020.89 1021.01 1021.14 1021.23 1021.27 1021.23 1021.11 1020.94 1020.75 1020.58 1020.46 1020.41 1020.43 1020.48 1020.54 1020.58 1020.58 1020.54 1020.45 1020.34
1016.09 1016.37 1016.79 1017.32 1017.91 1018.48 1018.98 1019.37 1019.62 1019.77 1019.84 1019.88 1019.95 1020.06 1020.21 1020.39 1020.56 1020.71 1020.82 1020.88 1020.93 1020.98 1021.06 1021.17 1021.31 1021.45 1021.55 1021.58 1021.52 1021.37 1021.17 1020.95 1020.76 1020.63 1020.57 1020.59 1020.66 1020.74 1020.81 1020.84 1020.82 1020.76 1020.68
1016.43 1016.69 1017.07 1017.55 1018.09 1018.62 1019.09 1019.45 1019.71 1019.87 1019.97 1020.05 1020.16 1020.30 1020.48 1020.67 1020.84 1020.98 1021.08 1021.14 1021.18 1021.24 1021.33 1021.46 1021.60 1021.74 1021.84 1021.86 1021.78 1021.62 1021.40 1021.16 1020.95 1020.80 1020.74 1020.76 1020.84 1020.94 1021.02 1021.08 1021.08 1021.05 1021.00
1016.79 1017.01 1017.35 1017.79 1018.27 1018.75 1019.18 1019.52 1019.76 1019.93 1020.05 1020.17 1020.31 1020.49 1020.70 1020.91 1021.10 1021.25 1021.35 1021.40 1021.45 1021.50 1021.59 1021.71 1021.85 1021.99 1022.08 1022.08 1022.00 1021.82 1021.59 1021.34 1021.12 1020.97 1020.90 1020.92 1021.00 1021.11 1021.22 1021.29 1021.31 1021.30 1021.27
1017.12 1017.32 1017.62 1018.02 1018.46 1018.89 1019.27 1019.58 1019.81 1019.97 1020.11 1020.25 1020.42 1020.63 1020.87 1021.10 1021.31 1021.47 1021.58 1021.63 1021.67 1021.72 1021.79 1021.90 1022.02 1022.14 1022.21 1022.21 1022.12 1021.94 1021.71 1021.46 1021.25 1021.10 1021.04 1021.06 1021.15 1021.26 1021.37 1021.46 1021.50 1021.51 1021.49
1017.42 1017.59 1017.87 1018.24 1018.64 1019.03 1019.38 1019.65 1019.86 1020.01 1020.15 1020.30 1020.49 1020.72 1020.97 1021.22 1021.44 1021.61 1021.72 1021.78 1021.82 1021.85 1021.90 1021.98 1022.08 1022.17 1022.22 1022.21 1022.11 1021.94 1021.73 1021.50 1021.30 1021.17 1021.12 1021.15 1021.24 1021.36 1021.48 1021.58 1021.63 1021.65 1021.64
1017.66 1017.82 1018.08 1018.42 1018.80 1019.16 1019.48 1019.73 1019.92 1020.06 1020.18 1020.33 1020.51 1020.74 1020.99 1021.25 1021.47 1021.65 1021.76 1021.82 1021.84 1021.86 1021.89 1021.94 1022.01 1022.07 1022.10 1022.07 1021.98 1021.83 1021.64 1021.44 1021.27 1021.16 1021.13 1021.17 1021.27 1021.40 1021.53 1021.63 1021.69 1021.72 1021.72
1017.83 1017.99 1018.24 1018.56 1018.92 1019.26 1019.56 1019.79 1019.97 1020.09 1020.21 1020.33 1020.50 1020.70 1020.94 1021.18 1021.39 1021.56 1021.67 1021.72 1021.74 1021.74 1021.75 1021.78 1021.81 1021.85 1021.86 1021.83 1021.75 1021.62 1021.45 1021.28 1021.15 1021.07 1021.06 1021.11 1021.22 1021.35 1021.48 1021.59 1021.66 1021.70 1021.71
1017.93 1018.09 1018.33 1018.64 1018.98 1019.30 1019.59 1019.82 1019.98 1020.10 1020.19 1020.30 1020.44 1020.61 1020.81 1021.02 1021.21 1021.37 1021.47 1021.52 1021.53 1021.53 1021.52 1021.53 1021.54 1021.56 1021.56 1021.53 1021.46 1021.34 1021.21 1021.07 1020.96 1020.90 1020.90 1020.97 1021.08 1021.21 1021.34 1021.45 1021.53 1021.58 1021.60
1017.96 1018.11 1018.34 1018.63 1018.95 1019.27 1019.55 1019.77 1019.93 1020.05 1020.13 1020.22 1020.33 1020.46 1020.62 1020.80 1020.96 1021.10 1021.19 1021.24 1021.26 1021.25 1021.24 1021.24 1021.25 1021.26 1021.25 1021.22 1021.16 1021.06 1020.95 1020.83 1020.74 1020.69 1020.69 1020.75 1020.85 1020.97 1021.09 1021.20 1021.28 1021.34 1021.38
1017.93 1018.07 1018.27 1018.54 1018.83 1019.13 1019.40 1019.63 1019.80 1019.92 1020.01 1020.08 1020.17 1020.27 1020.40 1020.54 1020.67 1020.79 1020.88 1020.93 1020.95 1020.96 1020.96 1020.97 1020.98 1020.99 1020.98 1020.96 1020.91 1020.82 1020.72 1020.61 1020.52 1020.46 1020.45 1020.48 1020.55 1020.65 1020.75 1020.85 1020.93 1021.00 1021.05
1017.86 1017.98 1018.15 1018.37 1018.63 1018.91 1019.17 1019.40 1019.58 1019.71 1019.81 1019.89 1019.96 1020.05 1020.15 1020.26 1020.37 1020.48 1020.56 1020.63 1020.67 1020.69 1020.71 1020.74 1020.76 1020.78 1020.78 1020.77 1020.72 1020.65 1020.54 1020.43 1020.32 1020.24 1020.19 1020.18 1020.22 1020.28 1020.36 1020.44 1020.51 1020.57 1020.63
1017.79 1017.89 1018.01 1018.18 1018.39 1018.63 1018.88 1019.10 1019.29 1019.45 1019.56 1019.65 1019.73 1019.81 1019.89 1019.99 1020.09 1020.18 1020.27 1020.35 1020.41 1020.46 1020.50 1020.54 1020.58 1020.61 1020.63 1020.63 1020.59 1020.52 1020.42 1020.29 1020.16 1020.04 1019.95 1019.90 1019.88 1019.90 1019.94 1020.00 1020.06 1020.11 1020.17
1017.74 1017.81 1017.89 1018.01 1018.17 1018.36 1018.58 1018.79 1018.99 1019.16 1019.30 1019.40 1019.49 1019.56 1019.64 1019.73 1019.82 1019.92 1020.01 1020.09 1020.17 1020.23 1020.30 1020.36 1020.42 1020.46 1020.50 1020.50 1020.48 1020.41 1020.31 1020.18 1020.03 1019.88 1019.75 1019.65 1019.58 1019.56 1019.56 1019.59 1019.63 1019.68 1019.73
1017.74 1017.79 1017.84 1017.90 1018.01 1018.15 1018.33 1018.53 1018.73 1018.90 1019.05 1019.17 1019.26 1019.34 1019.42 1019.50 1019.59 1019.68 1019.77 1019.85 1019.94 1020.01 1020.08 1020.15 1020.22 1020.28 1020.33 1020.35 1020.34 1020.29 1020.19 1020.07 1019.91 1019.74 1019.59 1019.45 1019.35 1019.28 1019.26 1019.26 1019.28 1019.32 1019.35
1017.79 1017.84 1017.86 1017.89 1017.95 1018.05 1018.19 1018.37 1018.55 1018.72 1018.87 1018.99 1019.09 1019.17 1019.24 1019.32 1019.39 1019.47 1019.55 1019.62 1019.70 1019.76 1019.83 1019.90 1019.96 1020.02 1020.08 1020.12 1020.13 1020.10 1020.04 1019.93 1019.78 1019.62 1019.46 1019.30 1019.18 1019.10 1019.05 1019.04 1019.05 1019.08 1019.10
1017.88 1017.95 1017.97 1017.98 1018.01 1018.08 1018.19 1018.33 1018.49 1018.65 1018.79 1018.90 1018.99 1019.06 1019.13 1019.18 1019.24 1019.30 1019.35 1019.40 1019.45 1019.49 1019.53 1019.58 1019.62 1019.68 1019.74 1019.80 1019.84 1019.85 1019.82 1019.75 1019.64 1019.50 1019.36 1019.21 1019.09 1019.01 1018.96 1018.94 1018.95 1018.98 1019.00
1017.99 1018.10 1018.14 1018.16 1018.18 1018.23 1018.32 1018.44 1018.57 1018.70 1018.82 1018.92 1018.99 1019.04 1019.08 1019.12 1019.15 1019.18 1019.20 1019.21 1019.21 1019.21 1019.21 1019.21 1019.23 1019.27 1019.33 1019.40 1019.47 1019.52 1019.54 1019.53 1019.48 1019.39 1019.28 1019.17 1019.07 1019.00 1018.96 1018.96 1018.98 1019.02 1019.04
1018.09 1018.25 1018.34 1018.39 1018.43 1018.48 1018.56 1018.66 1018.77 1018.88 1018.97 1019.04 1019.09 1019.11 1019.13 1019.14 1019.14 1019.13 1019.10 1019.07 1019.02 1018.96 1018.90 1018.86 1018.83 1018.84 1018.89 1018.97 1019.07 1019.17 1019.26 1019.31 1019.32 1019.29 1019.23 1019.16 1019.10 1019.06 1019.05 1019.07 1019.11 1019.16 1019.19
1018.15 1018.38 1018.53 1018.63 1018.70 1018.78 1018.86 1018.96 1019.05 1019.14 1019.20 1019.24 1019.26 1019.27 1019.26 1019.23 1019.20 1019.16 1019.09 1019.01 1018.90 1018.78 1018.66 1018.56 1018.49 1018.47 1018.51 1018.59 1018.72 1018.86 1019.00 1019.11 1019.19 1019.22 1019.22 1019.20 1019.17 1019.16 1019.18 1019.23 1019.30 1019.37 1019.42
1018.17 1018.46 1018.68 1018.84 1018.97 1019.08 1019.18 1019.28 1019.37 1019.44 1019.48 1019.50 1019.50 1019.48 1019.44 1019.40 1019.34 1019.26 1019.16 1019.04 1018.88 1018.71 1018.54 1018.38 1018.27 1018.22 1018.24 1018.33 1018.48 1018.66 1018.84 1019.01 1019.14 1019.23 1019.27 1019.29 1019.29 1019.31 1019.35 1019.42 1019.51 1019.61 1019.68
Thickness
5765 5763 5755 5753 5751 5749 5748 5747 5747 5746 5745 5744 5743 5742 5741 5740 5740 5739 5738 5737 5737 5736 5735 5734 5732 5731 5729 5727 5725 5723 5722 5720 5718 5717 5716 5715 5714 5712 5711 5710 5710 5710 5707
5767 5761 5754 5751 5749 5747 5746 5745 5744 5743 5742 5741 5740 5740 5739 5738 5737 5736 5734 5734 5733 5732 5731 5730 5728 5726 5724 5722 5721 5719 5717 5716 5714 5713 5713 5712 5710 5708 5707 5706 5705 5705 5703
5764 5759 5752 5749 5746 5745 5743 5742 5740 5740 5739 5738 5738 5737 5736 5735 5734 5732 5731 5730 5729 5728 5727 5725 5723 5721 5720 5718 5717 5715 5714 5712 5711 5710 5711 5712 5708 5705 5703 5702 5701 5700 5699
5761 5756 5752 5746 5744 5742 5740 5739 5737 5736 5736 5735 5735 5734 5733 5732 5730 5729 5727 5726 5725 5724 5722 5721 5719 5717 5716 5715 5713 5712 5710 5709 5708 5708 5709 5708 5706 5701 5700 5698 5697 5696 5695
5757 5754 5749 5744 5742 5739 5738 5736 5734 5733 5733 5732 5732 5731 5730 5729 5727 5725 5724 5722 5721 5719 5718 5716 5714 5713 5712 5711 5710 5708 5707 5705 5705 5706 5705 5703 5701 5698 5696 5694 5692 5691 5690
5753 5750 5745 5741 5739 5737 5735 5733 5732 5730 5730 5729 5729 5728 5727 5725 5724 5722 5720 5718 5717 5715 5714 5712 5711 5709 5708 5707 5706 5705 5703 5702 5703 5703 5701 5700 5698 5693 5691 5689 5688 5686 5685
5748 5745 5741 5737 5736 5734 5732 5731 5729 5728 5727 5726 5725 5724 5723 5722 5720 5718 5716 5715 5713 5712 5710 5708 5707 5706 5705 5704 5702 5701 5700 5699 5700 5699 5697 5695 5692 5689 5687 5685 5683 5681 5680
5743 5741 5738 5734 5732 5731 5729 5728 5727 5725 5724 5723 5722 5721 5719 5718 5716 5714 5712 5711 5709 5708 5706 5705 5703 5702 5701 5700 5698 5697 5696 5695 5695 5695 5693 5691 5686 5684 5682 5680 5678 5676 5674
5737 5736 5735 5731 5729 5727 5726 5725 5723 5722 5720 5719 5718 5717 5716 5714 5712 5711 5709 5707 5706 5704 5702 5701 5700 5698 5697 5696 5694 5693 5692 5691 5693 5691 5688 5686 5682 5679 5677 5675 5672 5671 5669
5731 5731 5731 5729 5727 5725 5723 5721 5720 5718 5717 5715 5714 5713 5712 5710 5709 5707 5706 5704 5703 5701 5699 5698 5696 5694 5693 5692 5691 5689 5688 5688 5689 5687 5685 5682 5677 5675 5672 5670 5667 5665 5663
5724 5725 5726 5725 5724 5723 5721 5718 5716 5714 5713 5712 5711 5709 5708 5709 5708 5705 5703 5701 5700 5698 5697 5695 5693 5691 5690 5689 5687 5686 5686 5687 5686 5684 5681 5677 5673 5671 5668 5665 5662 5660 5657
5716 5718 5720 5719 5719 5718 5717 5715 5714 5713 5711 5710 5710 5708 5707 5706 5705 5703 5699 5698 5697 5695 5694 5692 5690 5689 5688 5688 5686 5684 5685 5683 5682 5680 5677 5672 5669 5667 5664 5661 5657 5655 5652
5712 5712 5714 5714 5714 5714 5713 5712 5711 5711 5709 5708 5707 5705 5704 5702 5701 5700 5699 5697 5695 5693 5694 5691 5689 5689 5687 5685 5683 5682 5681 5679 5679 5677 5674 5669 5665 5662 5660 5656 5653 5650 5647
5706 5707 5708 5709 5708 5709 5709 5708 5708 5707 5706 5705 5703 5702 5701 5700 5699 5698 5697 5696 5694 5693 5691 5690 5689 5687 5685 5683 5681 5680 5678 5676 5674 5672 5670 5665 5661 5658 5655 5652 5648 5645 5642
5701 5702 5704 5704 5704 5704 5704 5704 5703 5703 5704 5703 5701 5699 5698 5697 5696 5695 5694 5692 5692 5690 5689 5688 5687 5686 5683 5681 5679 5677 5675 5673 5671 5668 5666 5661 5657 5654 5651 5648 5644 5641 5637
5697 5698 5699 5699 5700 5699 5700 5700 5700 5700 5699 5699 5698 5697 5695 5694 5693 5692 5691 5690 5689 5688 5686 5685 5684 5682 5681 5679 5677 5675 5673 5670 5667 5665 5662 5659 5654 5650 5647 5643 5640 5637 5633
5693 5695 5695 5695 5695 5696 5696 5696 5696 5696 5696 5695 5695 5693 5692 5691 5690 5689 5688 5687 5687 5685 5683 5682 5681 5678 5676 5675 5674 5673 5670 5668 5664 5662 5659 5655 5652 5648 5644 5640 5636 5633 5629
5689 5690 5691 5691 5691 5692 5692 5692 5692 5692 5692 5692 5691 5690 5689 5688 5687 5686 5685 5684 5684 5682 5680 5679 5677 5676 5674 5672 5671 5670 5667 5664 5661 5658 5655 5651 5648 5645 5641 5636 5632 5628 5625
5684 5686 5686 5687 5687 5688 5688 5687 5688 5688 5688 5688 5688 5687 5686 5685 5684 5683 5682 5681 5680 5679 5677 5675 5673 5672 5670 5668 5666 5664 5662 5660 5657 5654 5651 5647 5643 5639 5636 5632 5627 5623 5620
5677 5679 5680 5681 5682 5682 5682 5682 5682 5682 5683 5683 5683 5683 5682 5682 5681 5679 5679 5678 5676 5675 5673 5672 5669 5667 5664 5662 5660 5657 5656 5655 5653 5650 5647 5643 5639 5634 5630 5626 5622 5619 5615
5669 5672 5674 5675 5676 5676 5676 5676 5676 5677 5678 5679 5678 5678 5678 5677 5676 5675 5674 5673 5672 5671 5670 5668 5665 5662 5659 5656 5652 5652 5654 5653 5650 5646 5642 5637 5633 5628 5623 5619 5616 5612 5610
5662 5664 5666 5668 5669 5670 5671 5672 5672 5673 5673 5673 5672 5672 5671 5671 5670 5670 5669 5669 5668 5666 5665 5664 5660 5657 5655 5651 5647 5644 5644 5648 5648 5640 5635 5629 5625 5621 5616 5612 5608 5605 5602
5652 5655 5657 5658 5660 5661 5662 5663 5663 5664 5664 5665 5665 5665 5664 5663 5663 5663 5663 5662 5662 5661 5660 5659 5656 5652 5649 5648 5643 5638 5635 5637 5637 5635 5628 5622 5617 5613 5609 5604 5600 5596 5593
5641 5643 5646 5647 5649 5651 5653 5655 5657 5657 5658 5658 5657 5656 5655 5655 5655 5655 5655 5655 5655 5654 5653 5652 5650 5647 5644 5641 5638 5633 5629 5627 5621 5621 5620 5616 5610 5605 5600 5595 5591 5588 5584
5631 5632 5634 5636 5638 5640 5643 5645 5647 5647 5648 5647 5646 5647 5647 5647 5646 5646 5646 5647 5647 5646 5646 5644 5643 5640 5637 5635 5632 5627 5622 5616 5611 5607 5607 5606 5602 5597 5592 5586 5582 5578 5574
5621 5622 5624 5626 5627 5629 5631 5633 5635 5636 5637 5637 5638 5638 5638 5638 5637 5637 5637 5637 5637 5637 5636 5635 5634 5633 5631 5628 5625 5621 5616 5611 5606 5601 5598 5595 5591 5588 5583 5577 5572 5568 5563